Tracking 25378 objects as of 22-Jan-2022
HD Live streaming from Space Station
objects crossing your sky now

STARLINK-2619

Track STARLINK-2619 now!
10-day predictions
STARLINK-2619 is classified as:


NORAD ID: 48475
Int'l Code: 2021-040AZ
Perigee: 553.4 km
Apogee: 555.3 km
Inclination: 53.1 °
Period: 95.6 minutes
Semi major axis: 6925 km
RCS: Unknown
Launch date: May 9, 2021
Source: United States (US)
Launch site: AIR FORCE EASTERN TEST RANGE (AFETR)
aabbcc
Your satellite tracking list
Your tracking list is empty




NASA's NSSDC Master Catalog

Two Line Element Set (TLE):
1 48475U 21040AZ  22021.53424420 -.00000911  00000-0 -42315-4 0  9998
2 48475  53.0562 121.9990 0001390  71.9790 288.1350 15.06389719 39174
Source of the keplerian elements: AFSPC